Location: Limerick
(52.6650°N, 8.6230°W)
Time: 17:04:25
(UTC+00:00)

ISS - Visible Passes

Search period start: 20 November 2017 00:00
Search period end: 30 November 2017 00:00
Orbit: 402 x 407 km, 51.6° (Epoch: 21 November)

Date Brightness Start Highest point End Pass type
(mag) Time Alt. Az. Time Alt. Az. Time Alt. Az.
28 Nov -1.2 18:49:35 10° S 18:50:15 13° S 18:50:15 13° S visible
29 Nov -1.4 17:58:43 10° SSE 17:59:38 11° SE 18:00:07 11° SE visible
29 Nov -0.8 19:32:21 10° SW 19:32:46 13° SW 19:32:46 13° SW visible
